Dewpoint
58 60 60 62 62 62 62 62 62 62 60 59 57 55 54 53 51 51 51 51 48 48 51 50 50 48 46 42 41 43 46 43 48 50 45 44 43 43 40 40 44 42 43 46 48 50 49
55 56 57 58 59 60 62 62 61 62 61 59 57 56 54 52 50 50 50 50 48 47 50 51 49 47 43 36 38 42 44 41 44 45 45 45 44 46 45 43 40 42 43 45 48 50 50
52 52 54 55 57 58 60 61 61 61 62 59 57 56 53 51 50 50 49 48 49 47 48 50 49 45 41 37 39 41 41 42 44 46 45 45 46 45 46 42 42 44 41 46 47 48 48
50 51 51 52 53 56 58 59 60 61 61 59 57 55 52 49 50 49 49 48 48 48 48 50 48 44 37 41 39 40 41 41 44 48 47 48 47 44 46 46 42 39 39 39 42 45 48
48 48 48 49 51 53 54 57 58 60 61 59 56 54 51 49 50 49 49 48 47 48 48 49 44 41 36 41 38 41 42 41 43 46 48 47 45 43 44 40 38 37 32 37 38 44 45
47 48 49 47 49 50 52 54 57 58 60 58 56 53 50 50 48 47 46 47 48 47 45 46 43 36 34 34 40 42 44 43 42 43 41 42 41 38 39 39 32 33 32 36 37 42 43
47 46 48 49 49 49 49 51 54 56 60 57 55 51 51 48 47 47 44 43 40 37 39 35 34 33 33 42 44 41 44 42 42 40 35 39 37 31 36 37 37 35 36 35 38 43 41
44 45 46 47 49 50 49 50 53 54 58 57 53 52 49 48 46 45 44 40 37 38 33 38 36 33 34 41 38 40 42 39 38 34 37 35 34 35 37 38 37 36 36 36 40 43 39
44 45 45 46 47 47 50 50 52 53 56 56 53 51 49 47 45 44 41 42 43 40 34 35 35 34 37 39 36 39 40 40 36 35 35 30 34 38 36 35 36 34 34 35 36 40 41
43 44 45 47 48 47 49 50 50 53 55 55 52 51 48 46 42 43 40 43 43 39 19 24 33 36 40 41 38 44 43 41 37 34 34 34 37 37 35 33 35 30 34 34 37 33 31
43 43 43 44 45 47 47 50 50 52 54 54 52 50 48 47 42 41 41 43 42 32 0 20 31 38 41 38 39 41 44 42 36 37 36 35 35 35 34 36 35 34 39 34 35 36 35
45 44 43 44 45 46 46 48 49 52 55 53 52 49 48 46 43 43 43 42 37 19 -2 22 33 32 35 38 38 40 41 44 43 38 38 38 41 38 38 38 37 38 38 38 37 36 30
45 45 45 45 44 46 47 48 50 53 54 52 51 49 47 44 40 44 42 39 20 10 23 21 27 30 33 33 35 38 36 37 35 31 31 36 36 39 42 35 37 36 31 28 26 27 27
45 45 45 46 45 45 47 49 51 53 54 51 50 49 47 44 44 43 41 29 9 18 23 27 29 29 29 32 33 33 33 34 37 35 33 31 28 36 39 36 34 33 28 26 20 23 24
45 45 45 46 46 46 47 50 53 52 52 50 50 46 45 45 44 44 35 20 18 23 27 28 28 27 27 29 32 32 33 34 36 34 31 31 31 39 39 37 35 34 28 29 23 22 23
45 45 45 46 46 47 46 51 51 53 50 51 46 44 43 46 45 42 36 28 29 29 32 29 25 27 24 27 28 30 31 32 33 36 35 33 31 36 38 36 33 30 28 26 27 18 16
45 45 45 46 47 47 48 51 53 51 51 50 45 40 44 46 44 40 31 28 33 35 34 28 27 26 26 26 29 31 30 32 35 34 34 33 30 30 33 35 32 28 27 28 27 26 20
45 45 45 47 47 47 48 50 53 50 51 49 43 36 45 44 37 36 32 34 36 35 36 35 33 32 26 25 29 30 31 33 35 35 32 33 31 28 29 35 36 34 30 26 21 21 21
43 45 45 46 47 47 48 49 51 51 51 46 40 40 45 44 30 31 35 35 35 35 36 35 33 33 33 29 29 33 33 36 36 34 32 32 27 19 21 25 31 32 32 30 28 26 22
44 45 45 46 46 47 48 48 51 51 52 46 40 34 40 42 37 33 34 34 34 37 36 36 33 34 31 29 32 32 33 37 35 35 40 35 28 23 20 22 29 28 31 29 27 21 23
45 45 44 45 46 45 48 48 51 50 52 47 37 33 35 33 34 36 34 35 33 33 34 35 33 32 28 27 30 31 34 35 35 37 34 30 25 25 28 30 30 29 30 30 27 27 23
44 45 45 45 45 44 49 48 50 50 52 46 38 34 34 33 34 35 35 33 33 33 31 31 30 31 30 28 28 29 32 32 30 33 32 32 25 25 23 25 26 27 28 29 30 28 27
45 45 45 45 44 44 48 48 48 50 50 44 41 37 34 35 32 33 33 33 33 34 34 34 33 33 31 32 33 32 32 34 34 32 31 29 27 22 20 23 22 21 22 27 28 30 29
46 45 45 45 43 46 47 48 50 51 49 43 38 36 33 31 33 33 34 35 35 34 33 33 34 33 36 36 33 31 31 31 30 30 33 29 26 23 17 20 12 21 27 27 28 27 27
45 45 45 45 43 48 48 51 51 50 48 39 37 35 34 30 32 33 35 35 33 32 31 32 33 34 36 32 29 28 28 28 29 29 31 31 28 23 18 16 19 23 27 27 27 26 25
45 45 45 44 43 48 48 50 50 50 48 38 36 36 34 32 28 28 34 33 31 29 30 32 35 37 36 33 29 23 22 24 25 26 29 28 27 24 22 18 17 21 28 28 29 23 28
45 45 45 43 47 47 50 50 50 49 50 38 35 36 32 28 28 30 33 33 33 30 30 31 32 34 35 30 28 25 23 26 24 24 24 26 25 22 21 19 22 25 26 28 20 20 29
45 44 44 44 47 47 50 50 49 49 49 38 34 35 32 28 28 30 30 30 31 31 30 31 31 32 33 28 28 27 24 26 23 24 24 24 22 22 23 20 18 25 27 25 27 29 30
43 44 44 45 46 49 50 49 49 48 45 38 32 34 33 30 29 30 30 31 31 31 31 31 30 31 33 30 29 28 27 25 24 23 25 24 24 24 25 24 27 29 28 30 30 29 29
Lifted_Index
4 3 3 2 2 1 1 1 1 1 1 2 3 5 7 9 10 11 11 12 13 13 12 11 11 11 10 8 6 4 3 2 2 1 2 2 2 1 1 0 0 0 0 -0 -1 -1 -1
4 4 3 3 2 2 1 1 1 1 1 2 3 5 7 9 10 11 12 12 13 13 12 11 11 10 9 8 6 4 3 2 1 1 2 2 2 1 1 0 0 0 0 -0 -1 -1 -1
6 5 4 3 3 2 2 1 1 1 1 2 3 5 7 9 10 11 12 12 12 12 12 11 10 10 9 7 5 3 2 2 1 1 2 2 2 1 1 0 0 0 0 0 -0 -1 -1
8 8 6 5 4 3 2 2 2 1 1 2 3 4 7 9 10 11 12 12 12 12 11 10 9 9 8 6 3 2 2 1 1 1 2 2 2 1 1 0 0 0 1 0 -0 0 -0
11 10 9 7 6 5 4 3 2 1 1 2 3 4 6 9 10 11 12 12 12 11 10 9 9 8 6 4 2 1 1 1 1 1 2 2 2 2 1 0 0 0 1 1 1 1 1
11 10 10 9 8 7 6 4 3 2 1 2 3 5 7 9 10 11 12 12 11 11 10 9 8 7 5 3 2 1 1 0 1 1 2 2 2 2 1 0 0 0 1 1 1 2 2
11 11 10 9 9 9 8 6 4 3 2 2 3 5 8 9 10 12 12 11 10 10 10 9 7 6 4 2 1 1 0 0 1 2 2 3 2 2 1 0 0 1 1 1 1 2 2
11 11 11 10 10 9 9 8 6 4 2 2 3 5 8 10 10 11 11 11 10 10 9 7 6 4 3 2 1 0 0 0 1 2 2 2 2 2 1 1 0 1 1 1 2 2 2
12 12 11 11 10 10 10 9 7 5 3 2 3 5 9 10 11 11 10 10 10 10 8 6 4 3 2 2 1 0 0 1 2 2 2 2 2 2 2 1 0 1 1 1 2 2 2
12 12 12 11 11 10 10 9 8 6 5 3 4 6 9 10 10 10 10 10 10 9 7 5 4 3 2 2 1 1 1 1 2 2 2 2 2 2 1 1 1 1 1 1 2 2 2
11 11 10 10 9 9 10 9 8 7 5 4 5 7 10 10 10 10 10 10 10 8 5 5 4 3 2 2 1 1 1 2 2 2 1 1 2 2 1 1 1 1 1 1 2 2 2
8 8 7 6 6 6 8 8 8 7 5 5 6 9 10 10 9 10 10 10 9 6 4 4 3 3 2 1 1 1 1 2 1 1 1 1 2 2 1 1 1 1 1 1 1 1 1
5 4 4 3 3 3 5 6 7 6 5 5 7 9 10 10 9 10 10 9 7 5 4 3 3 2 2 1 1 1 1 1 1 1 1 1 2 1 1 1 1 1 1 1 0 1 1
3 3 2 2 2 2 3 4 5 5 5 6 8 10 10 10 10 10 9 8 5 4 4 3 2 2 2 2 1 1 1 1 1 1 1 1 1 1 1 1 1 1 1 1 0 0 0
2 2 2 1 1 2 3 4 4 5 6 7 8 10 10 10 10 10 9 7 6 5 4 3 2 2 2 2 2 1 1 1 1 1 1 1 1 2 2 2 1 1 1 1 1 0 0
2 2 2 1 1 2 3 4 4 5 6 7 8 9 9 10 10 9 8 7 6 5 4 3 2 2 2 2 2 1 1 1 1 1 1 1 1 1 1 1 1 1 1 1 1 1 0
2 1 1 1 2 2 3 4 4 5 7 8 8 7 9 10 10 9 8 7 6 5 4 3 2 2 2 2 2 2 1 1 1 1 1 1 1 1 1 1 1 1 1 1 1 1 1
1 1 1 2 2 3 4 5 5 6 7 8 7 6 8 10 9 9 8 7 6 5 4 3 3 2 2 2 2 2 2 2 2 2 1 1 1 1 1 1 1 1 1 2 2 2 1
1 1 2 2 2 3 5 6 6 7 7 8 6 6 9 10 9 9 9 7 6 5 4 3 3 3 2 2 2 2 2 2 2 2 2 2 2 1 1 1 1 1 1 1 2 2 2
1 1 2 2 3 4 5 7 7 7 8 8 7 7 9 10 10 10 9 7 6 5 4 3 3 3 3 3 3 3 2 2 2 2 2 2 2 2 2 2 2 2 1 1 2 2 2
1 2 2 2 3 4 5 7 7 8 8 9 8 8 9 10 10 10 9 8 6 5 4 3 3 3 3 3 3 3 2 3 3 3 3 3 2 2 2 2 2 2 2 2 2 2 2
2 2 2 3 5 6 6 7 8 8 8 8 8 9 10 10 10 11 10 9 7 6 5 4 3 3 3 4 3 3 3 3 3 3 3 3 3 2 2 2 2 2 2 2 2 2 2
3 3 3 4 6 7 8 8 9 9 9 9 9 10 11 11 11 11 10 9 8 7 6 5 4 4 4 4 4 3 3 3 3 3 3 3 3 3 2 2 2 2 2 2 2 2 2
4 4 4 5 7 8 9 8 9 9 9 9 9 10 11 11 11 11 11 10 9 8 7 6 5 4 4 4 4 4 4 4 3 3 3 3 3 2 2 2 2 2 3 3 3 2 2
6 6 6 7 8 9 9 8 8 9 9 9 10 10 10 10 11 11 11 10 10 9 8 7 6 5 5 4 4 4 4 4 4 3 3 3 3 3 2 2 2 3 3 3 3 3 3
8 7 8 8 9 9 9 9 9 9 9 10 10 10 10 10 11 11 11 10 10 10 9 8 8 7 6 5 5 4 4 4 4 4 4 3 3 3 3 2 2 3 4 4 4 3 3
9 9 9 9 9 9 8 9 9 10 10 10 11 11 11 10 11 11 11 10 10 10 10 9 9 8 7 7 6 5 5 5 5 4 4 4 4 4 3 3 3 4 4 4 4 3 4
10 10 10 10 9 8 8 9 10 10 11 11 12 12 12 11 11 11 11 11 11 10 10 10 10 9 9 8 8 7 7 6 6 6 5 5 5 4 4 4 4 4 4 4 4 4 4
11 11 10 10 9 9 9 9 10 11 11 12 12 13 12 11 11 12 12 11 11 11 10 10 10 10 9 9 9 8 8 8 7 7 6 6 5 5 5 5 5 5 5 4 4 4 4